Wind_Speed
3 2 1 3 3 5 3 5 3 8 5 3 4 3 8 4 2 2 10 12 29 29 31 31 31 31 30 29 29 26 23 22 21 20 20 20 20 20 20 21 22 21 21 22 22 23 26 24 23
2 5 5 2 4 1 5 5 4 4 1 5 4 3 6 3 2 5 11 16 29 28 30 30 31 32 32 30 31 24 24 21 19 19 19 20 21 21 22 22 22 22 21 22 25 28 28 26 24
2 1 4 3 3 3 4 4 3 4 2 2 2 7 3 3 2 7 10 28 28 29 32 30 31 31 32 30 29 25 22 20 18 18 20 20 20 22 23 22 22 22 23 25 27 29 28 29 25
3 4 4 3 3 5 4 8 4 3 3 6 3 5 2 6 2 5 25 25 25 27 29 30 31 31 31 31 27 25 23 19 17 18 19 20 20 21 22 22 22 23 24 25 25 27 27 28 27
3 3 3 1 4 2 3 5 1 2 2 3 2 2 2 4 6 22 24 22 24 27 29 30 29 28 28 27 26 24 20 18 17 18 19 20 20 21 22 23 22 22 22 22 21 23 26 25 25
3 3 3 2 4 3 3 2 2 1 2 3 6 5 1 4 19 22 24 23 23 27 29 30 27 23 24 25 25 20 17 18 18 18 18 19 19 20 22 21 21 20 20 19 18 19 19 21 21
5 4 4 2 4 4 4 1 2 1 3 2 7 5 1 6 17 21 22 20 25 29 31 24 27 22 20 24 20 19 18 18 19 19 19 19 19 20 20 19 19 18 17 16 16 16 14 14 17
5 4 1 4 4 5 3 3 2 1 2 2 4 3 5 2 23 23 22 24 26 27 28 28 25 23 18 19 17 18 18 19 19 19 20 19 18 18 18 17 16 16 14 14 14 13 14 15 16
3 4 3 5 3 4 2 2 2 2 1 3 4 2 13 23 28 24 27 22 24 21 23 27 25 24 21 18 18 18 18 18 19 20 20 18 16 16 15 14 15 13 13 12 12 11 11 11 12
4 4 7 5 3 4 3 4 2 1 1 4 9 12 20 24 23 17 19 19 19 17 31 28 17 17 18 19 19 20 21 20 20 19 17 16 14 12 13 12 11 10 8 8 9 10 10 11 11
5 5 6 5 6 4 5 4 3 2 3 5 12 15 15 17 16 17 15 15 24 24 24 25 22 22 22 21 20 20 21 21 20 17 14 13 11 9 8 8 9 7 7 11 11 12 12 11 10
2 9 6 4 5 4 6 6 2 4 4 4 15 15 14 14 14 17 19 21 32 29 32 26 21 23 21 19 21 21 21 20 17 15 12 7 11 12 11 11 11 12 12 14 13 12 10 10 10
2 2 3 6 8 3 6 3 3 4 8 11 17 17 15 11 14 16 23 26 28 35 29 23 19 22 20 22 21 21 21 17 14 14 14 12 13 12 13 14 14 14 12 10 10 9 9 11 11
2 5 3 4 7 7 6 1 4 4 5 15 14 14 14 15 15 14 22 22 28 28 24 23 22 22 21 21 22 20 19 17 16 14 14 12 13 16 15 15 13 12 9 9 9 10 9 11 10
4 5 5 2 2 4 8 4 1 7 5 19 15 14 15 17 23 21 24 22 22 22 23 19 24 22 22 22 21 18 18 18 16 14 12 13 15 14 14 13 13 12 10 9 9 8 8 10 12
5 4 1 5 1 4 3 3 4 7 8 12 12 10 11 19 25 24 27 25 28 27 24 24 26 23 23 23 19 19 18 18 16 14 14 15 14 14 15 15 13 11 9 6 6 8 10 11 11
2 3 1 6 3 2 4 3 5 6 9 12 12 12 11 13 14 17 23 27 27 24 25 28 29 26 26 21 21 21 19 16 16 16 15 15 16 16 14 12 12 8 4 4 6 7 8 8 6
2 3 2 4 4 2 2 1 4 9 8 12 12 13 13 13 17 17 24 26 26 25 28 29 28 27 24 26 23 21 19 18 17 16 16 17 17 14 12 11 9 5 3 1 3 4 3 2 2
3 4 4 6 6 5 7 5 8 11 3 6 7 11 14 16 14 15 21 24 23 27 30 29 29 30 32 29 26 23 21 18 16 16 17 17 16 12 10 9 7 5 2 1 4 2 1 1 2
3 3 7 9 7 8 6 5 3 8 9 13 15 13 15 14 9 16 19 20 25 29 32 32 33 34 34 32 28 24 21 17 18 20 18 15 13 13 9 7 6 5 2 6 3 1 1 1 2
5 4 6 9 2 2 5 0 6 6 4 7 11 15 15 17 15 14 20 28 29 33 35 37 36 36 34 31 24 18 19 16 20 21 19 17 15 11 8 5 3 4 4 4 2 2 2 3 3
4 4 7 5 2 3 2 3 5 8 12 9 14 13 15 15 13 13 20 23 34 39 38 38 37 35 34 28 23 20 23 23 22 24 22 20 15 11 10 8 8 7 5 2 1 2 2 6 7
7 5 4 1 1 3 1 3 5 7 9 15 15 16 14 17 17 16 21 28 27 29 36 36 35 33 32 28 23 21 20 23 23 23 23 19 16 11 7 8 5 4 3 0 2 3 4 6 7
3 2 5 5 2 2 2 4 4 6 16 17 15 16 16 12 9 10 16 20 22 29 31 34 31 30 30 28 24 22 22 23 22 23 20 17 12 11 7 7 6 2 6 2 3 6 7 8 8
4 5 3 4 4 4 1 2 8 7 5 9 17 18 15 16 10 11 13 18 21 25 30 32 32 33 28 25 26 25 23 25 23 26 22 19 17 12 9 7 7 11 4 5 7 10 11 10 12
3 5 5 3 3 4 2 4 6 3 8 4 9 11 13 16 14 15 16 23 25 26 27 29 30 28 26 27 28 22 24 24 22 23 22 19 14 13 11 12 9 7 5 6 10 12 11 10 9
1 1 1 5 3 2 3 6 9 7 4 4 6 8 11 13 15 16 17 20 21 24 30 30 28 25 25 28 24 23 22 22 23 20 16 13 6 9 10 6 10 6 4 8 10 11 10 7 8
3 7 3 2 3 3 4 4 5 7 5 3 4 8 7 8 11 12 13 19 24 30 31 29 29 28 26 27 27 26 26 24 23 17 12 4 6 9 12 11 8 6 8 10 12 11 10 11 12
2 2 1 4 4 4 1 5 6 7 6 7 9 8 9 10 11 13 14 22 28 31 32 35 34 34 33 32 31 29 25 24 20 13 8 5 8 15 12 8 7 9 10 10 12 13 13 12 14
4 7 6 4 4 2 4 6 4 9 8 5 7 8 8 10 12 13 17 22 25 28 31 36 37 38 37 35 35 31 28 22 15 6 7 12 12 11 7 8 13 12 11 13 15 15 13 12 15
Wind_Direction
236 174 106 13 55 64 258 260 241 283 329 14 283 338 107 43 156 211 148 151 160 158 162 157 151 143 137 131 124 126 127 122 123 122 118 114 112 112 109 104 101 97 90 88 84 83 81 75 72
169 122 69 63 82 84 272 268 300 288 3 104 29 359 39 73 54 111 127 160 152 156 160 156 151 145 139 136 130 131 127 130 126 124 119 115 115 113 108 103 100 97 94 91 87 85 80 76 80
133 127 79 90 113 190 245 262 292 311 29 291 61 34 7 44 94 139 156 155 156 157 160 158 151 145 142 140 129 137 132 131 131 128 122 119 118 114 110 107 105 101 97 92 87 85 82 76 82
195 18 39 92 240 250 236 288 241 301 60 83 125 51 15 351 314 154 147 150 150 151 159 157 153 145 143 134 139 134 139 130 135 130 124 123 120 118 114 111 108 104 100 95 90 86 83 80 79
40 50 62 2 269 246 239 283 290 72 65 26 37 78 27 353 123 139 149 147 145 153 160 151 146 144 142 134 135 138 128 136 139 133 130 127 124 121 116 114 109 104 100 93 87 81 77 77 84
40 98 62 230 254 234 232 249 261 13 168 142 103 111 293 75 124 134 146 155 156 155 150 143 139 142 140 138 141 128 138 146 140 137 132 127 126 122 117 112 105 100 95 89 81 80 75 76 80
127 90 219 246 257 259 212 171 235 150 171 169 131 111 96 112 125 141 151 148 142 139 138 137 136 141 152 138 135 138 148 148 141 138 133 127 124 118 113 107 102 98 92 90 84 84 78 71 75
117 98 14 262 247 277 210 154 113 335 346 49 4 161 153 113 137 147 147 139 140 141 139 145 141 135 144 137 142 148 150 148 144 136 130 128 124 118 112 106 103 93 92 91 89 87 82 78 77
137 79 238 260 217 250 109 151 81 309 5 56 353 58 123 121 130 122 124 126 134 140 133 131 144 151 157 152 152 151 150 148 140 131 133 131 122 116 107 105 101 108 103 98 93 91 90 84 82
112 138 218 211 233 244 149 98 128 260 325 73 74 101 119 126 125 119 128 136 145 131 133 137 153 159 166 160 160 157 153 148 141 136 136 130 121 111 109 107 107 110 113 109 101 100 97 90 84
183 204 207 211 215 119 113 156 205 172 270 191 153 138 130 130 123 119 129 120 131 109 143 163 157 183 176 170 166 161 156 149 146 140 137 140 132 113 117 127 136 131 124 114 117 110 97 87 76
185 238 163 197 121 112 150 134 177 207 350 155 144 131 123 120 127 128 132 138 140 138 159 176 180 181 179 174 170 164 158 151 147 152 155 165 150 125 124 130 130 138 127 122 112 99 91 78 69
240 25 76 134 127 121 128 195 188 38 1 98 131 129 120 131 142 143 146 150 156 161 179 187 194 188 179 178 172 164 156 154 156 156 152 159 153 154 150 140 133 129 127 116 105 93 73 63 52
311 82 77 128 183 169 137 235 352 74 109 109 115 118 141 162 148 153 153 165 174 178 196 196 198 193 181 177 170 163 163 161 157 152 165 169 170 163 155 144 142 130 124 106 90 77 62 61 56
137 56 14 347 209 217 132 42 232 139 131 129 138 155 170 170 163 171 167 186 198 203 200 202 193 189 181 178 173 174 166 169 164 167 171 174 171 157 155 148 138 129 117 100 84 69 52 47 34
61 50 105 255 229 261 119 226 208 161 140 140 138 178 161 175 182 180 184 191 201 208 214 203 197 189 182 183 184 177 173 174 171 173 166 161 159 155 149 142 134 128 113 92 61 34 31 36 29
20 121 235 321 72 329 49 179 182 186 163 153 165 185 183 179 202 190 197 196 201 207 195 195 197 189 188 186 178 173 173 173 167 163 160 153 147 146 150 141 128 118 88 41 22 36 38 34 30
4 51 298 241 292 75 342 284 204 181 176 178 170 179 192 196 206 198 200 202 206 200 193 188 188 187 186 175 169 166 165 161 159 162 162 154 152 151 149 135 132 145 140 75 22 56 54 93 72
92 291 308 280 234 171 219 211 208 201 209 178 184 184 190 203 202 206 196 198 198 200 198 195 187 184 178 173 170 168 168 165 163 167 166 168 171 164 159 151 151 164 195 215 149 113 79 173 346
342 298 288 290 276 172 180 214 178 188 202 195 189 193 202 206 188 184 198 191 194 198 200 196 190 188 188 185 181 178 175 174 173 171 174 175 173 176 174 177 183 188 202 169 166 344 305 264 344
249 231 271 239 19 340 121 114 150 226 174 202 216 197 200 201 196 187 186 197 195 200 200 201 198 196 194 194 186 181 176 176 179 181 179 180 183 186 191 207 223 194 189 184 198 299 294 317 310
299 263 243 281 142 196 164 254 237 182 194 196 206 199 204 204 214 193 186 186 194 202 203 203 202 201 200 196 191 193 185 178 193 190 187 184 191 200 201 202 196 191 196 190 120 52 336 314 303
229 262 263 188 168 107 315 110 261 142 204 215 205 206 204 201 192 195 193 193 191 195 203 204 206 204 202 202 200 201 193 196 195 193 187 192 191 192 192 192 200 156 134 39 323 338 333 324 305
172 160 37 44 56 35 262 139 277 185 214 214 205 208 194 195 184 187 191 182 182 198 204 206 204 207 206 205 205 207 206 198 193 189 188 188 187 189 185 148 152 212 273 239 335 340 338 335 326
98 64 345 359 15 221 335 57 241 249 214 217 205 207 187 186 166 168 174 182 181 194 198 198 200 204 214 210 209 213 219 210 200 191 186 171 154 147 161 171 284 299 261 308 322 326 330 327 322
71 142 157 227 211 265 21 233 256 223 291 230 222 184 171 173 173 176 177 182 187 191 190 187 199 206 208 210 213 221 214 211 209 192 178 166 173 184 205 260 268 213 271 321 330 329 326 323 322
188 22 111 98 11 50 256 291 311 332 65 42 110 134 165 171 175 177 175 179 178 182 188 191 190 192 200 208 208 197 196 187 168 153 158 154 210 247 269 194 199 213 284 312 323 326 321 313 323
160 154 62 17 185 226 282 287 242 303 292 168 185 169 183 174 172 172 174 177 186 192 190 186 189 189 187 180 176 170 170 169 161 163 161 188 196 233 197 199 213 255 296 310 323 317 310 305 312
141 190 153 127 147 171 215 265 223 257 245 227 208 211 187 174 175 174 178 180 192 191 187 189 187 179 173 171 170 170 167 163 155 149 155 173 185 206 208 223 263 288 299 311 312 302 296 295 310
187 193 146 128 238 182 163 269 261 246 243 243 229 194 185 183 181 180 179 175 180 184 186 186 183 183 181 177 173 164 157 154 159 225 164 192 197 205 227 279 294 295 296 301 301 292 280 290 307
Height
785 784 783 787 810 819 819 807 787 783 776 769 767 770 770 780 780 792 778 779 785 790 794 797 798 799 803 806 807 813 821 823 826 828 827 826 827 829 830 831 833 835 835 836 839 841 840 838 838
785 784 784 798 822 826 819 796 787 784 775 772 771 771 776 783 777 780 781 782 787 792 796 799 801 802 803 808 807 818 819 825 828 829 828 828 829 831 832 833 836 836 837 839 840 840 842 841 839
786 786 794 811 828 825 817 789 783 777 773 775 777 776 778 782 781 781 781 782 787 793 796 801 803 805 806 811 809 819 822 826 829 829 828 829 832 831 832 835 838 839 841 841 842 842 843 843 842
787 788 799 814 814 804 797 788 779 777 772 774 780 789 783 784 784 784 787 788 790 794 799 803 806 809 810 807 816 817 824 826 830 830 829 831 832 833 834 837 840 841 842 842 844 846 844 847 845
787 795 815 815 806 792 790 786 778 780 777 778 780 793 790 786 783 785 790 793 792 795 800 805 809 812 813 814 816 820 822 828 831 831 831 832 834 835 836 839 843 843 845 845 848 849 848 850 850
796 802 822 820 805 790 785 784 782 780 779 777 782 790 791 787 787 788 792 794 796 796 801 807 810 815 816 816 817 821 826 829 830 833 834 835 838 838 839 842 844 846 847 848 850 851 852 853 853
797 809 815 806 803 791 784 779 780 779 777 778 773 791 789 789 790 791 794 798 798 801 803 809 805 814 819 818 822 825 829 831 831 834 836 839 842 842 843 845 846 848 849 849 851 853 854 854 855
792 801 805 804 802 793 779 779 778 780 779 777 778 789 790 787 790 794 796 800 803 806 807 810 815 817 816 821 824 827 831 833 835 836 838 841 844 845 845 846 848 850 852 852 853 854 855 855 855
785 808 815 802 795 783 778 781 784 780 781 780 782 781 784 787 790 795 798 804 807 810 808 809 816 820 823 825 828 831 834 837 837 838 840 844 846 846 847 849 849 851 852 854 854 855 856 856 857
794 810 800 786 781 781 779 783 784 783 782 785 787 786 787 790 792 797 801 806 810 812 813 817 822 823 825 827 828 831 833 836 838 840 843 846 847 849 849 850 852 853 855 855 855 854 857 859 857
787 796 783 777 774 777 784 784 781 784 788 784 788 789 789 795 797 799 805 807 809 810 818 821 824 823 825 827 831 834 835 836 839 841 845 847 849 849 851 851 853 854 857 855 856 856 859 858 859
783 775 775 772 777 781 783 782 784 784 784 777 782 788 793 798 800 804 807 810 813 819 820 826 826 826 828 831 832 834 837 837 839 843 844 848 849 850 853 853 854 855 857 857 857 858 860 859 860
779 774 773 772 779 780 779 781 781 785 782 779 785 789 796 800 801 804 808 812 815 817 818 825 825 828 828 832 833 835 836 839 840 843 845 848 849 851 852 854 855 857 859 859 858 859 861 861 860
774 775 776 776 778 778 781 783 781 788 785 788 792 796 797 798 800 803 808 815 816 819 822 825 827 828 829 831 834 836 837 838 841 842 847 848 849 851 853 854 856 858 860 859 859 860 861 862 862
775 784 781 778 776 775 778 788 786 785 787 792 794 791 794 798 798 797 805 811 816 819 821 823 824 826 828 832 833 836 835 839 840 845 846 849 851 851 853 855 857 858 860 860 860 862 862 860 860
785 789 798 779 773 771 773 794 784 784 788 792 794 793 798 798 798 799 800 804 810 815 817 820 823 825 829 831 833 834 837 840 841 845 847 849 851 852 854 855 857 859 859 860 860 860 859 860 861
794 804 797 789 776 776 780 788 782 786 787 791 795 795 797 802 802 803 803 804 809 814 816 818 822 824 829 830 833 835 839 841 843 846 848 849 851 854 856 855 857 858 859 859 860 860 861 862 863
801 801 794 794 783 779 783 788 787 785 787 788 792 795 796 798 796 800 803 806 810 814 817 818 821 824 828 831 834 836 840 842 844 846 848 849 852 854 855 855 856 859 859 860 860 861 862 862 862
784 792 796 785 779 785 789 790 792 786 789 794 795 795 794 793 795 800 803 806 810 814 817 819 820 823 827 830 833 836 838 841 843 847 848 850 852 853 854 855 856 857 858 859 860 860 860 860 860
783 793 795 784 774 780 786 788 785 791 784 785 787 792 792 793 796 797 802 805 808 811 815 818 820 822 826 827 831 833 837 840 843 847 849 849 850 852 853 854 856 857 857 858 858 859 859 859 859
785 790 791 792 779 776 782 788 787 785 780 782 782 780 785 785 788 791 795 799 802 806 809 814 817 821 822 827 830 833 836 840 844 845 846 848 850 851 853 855 856 856 857 858 858 858 858 858 858
793 777 781 782 788 801 777 809 788 782 780 781 779 781 779 782 784 787 790 794 796 799 805 809 813 817 821 825 829 830 831 835 839 841 844 847 850 852 854 855 855 856 857 857 857 857 858 858 857
786 772 774 773 786 788 787 802 787 779 783 776 776 774 777 775 777 782 782 787 794 800 804 807 811 815 819 822 826 830 831 834 837 841 844 847 850 852 854 854 858 856 856 857 856 856 857 857 856
767 773 781 790 795 808 788 796 795 786 768 762 765 768 771 773 775 779 784 789 794 798 803 807 811 814 818 821 825 827 830 833 837 840 844 847 849 850 853 853 856 856 854 853 855 855 854 854 854
773 790 814 818 822 813 787 794 784 759 759 757 755 756 764 768 774 780 783 788 792 796 799 803 807 811 815 819 822 825 828 832 834 837 840 843 846 848 852 850 852 855 855 854 853 853 852 852 851
779 786 816 809 819 811 785 796 777 750 748 748 747 751 758 765 771 776 780 785 789 792 796 798 804 808 813 817 820 822 826 830 833 836 839 843 844 845 847 846 848 851 852 851 851 850 849 849 848
781 791 786 805 811 817 803 784 763 752 755 749 755 755 759 762 766 770 776 779 784 788 791 796 802 806 810 813 816 821 824 827 831 837 839 839 849 846 848 846 847 848 848 848 847 846 846 846 845
771 777 801 810 810 811 804 794 789 763 756 758 755 757 760 761 765 768 773 776 781 785 788 794 799 803 807 811 815 819 824 827 830 834 837 841 840 846 845 845 847 846 844 843 843 843 842 842 841
780 785 786 795 808 813 821 802 768 758 753 753 757 754 756 760 762 765 769 773 777 782 785 791 796 800 804 808 812 817 822 825 829 830 834 837 839 843 843 843 842 840 839 839 839 838 838 837 837
764 774 781 810 798 808 814 801 754 754 749 747 748 752 755 757 759 761 765 770 775 779 783 787 792 796 800 805 807 812 817 822 823 830 831 837 834 839 839 840 839 837 836 836 834 834 834 833 833